Date String (YYYY-MM-DD hh:mm:ss) UTC,Instrument flags,absolute air pressure of the measurement (hPa),sample flow rate (lpm),inlet stack bypass flow (lpm),air temperature of the measurement (°C),ambient temperature measured by the external sensor (°C),aerosol sample conditioner tube jacket temperature (°C),OPC LED temperature (°C),internal box temperature (°C),relative humidity of the measurement (%),span deviation,mass concentration of particles derived from Lorenz-Mie calculation of OPC scattering (μg/m³),mass concentration of particles derived from Lorenz-Mie calculation of OPC scattering (μg/m³),mass concentration of particles derived from Lorenz-Mie calculation of OPC scattering (μg/m³)
DateTimeUTC,F1_M11,P_M11,Q1_M11,Q2_M11,T1_M11,T2_M11,T3_M11,T4_M11,T5_M11,U1_M11,ZSPAN_M11,X2_M11,X0_M11,X1_M11
2024-04-25 14:00:00,SystemResetWarning,0824.3,5.00,000.00,026.2,025.5,000.0,034.7,028.0,027.9,0000.4,0011.30,0028.98,0008.73
2024-04-25 14:01:00,SystemResetWarning,0824.3,5.00,000.00,026.2,025.5,000.0,034.7,028.0,027.9,0000.4,0011.22,0031.99,0008.71
2024-04-25 14:02:00,SystemResetWarning,0824.3,5.00,000.00,026.2,025.5,000.0,034.7,028.0,028.0,0000.4,0011.09,0031.96,0008.70
2024-04-25 14:03:00,SystemResetWarning,0824.2,5.00,000.00,026.2,025.5,000.0,034.7,028.0,028.0,0000.4,0011.06,0030.23,0008.68
2024-04-25 14:04:00,SystemResetWarning,0824.3,4.99,000.00,026.2,025.5,000.0,034.7,028.1,028.3,-000.1,0011.08,0030.39,0008.69
2024-04-25 14:05:00,SystemResetWarning,0824.3,5.00,000.00,026.2,025.5,000.0,034.7,028.1,028.6,-000.3,0011.08,0030.55,0008.69
2024-04-25 14:06:00,SystemResetWarning,0824.3,5.00,000.00,026.2,025.5,000.0,034.7,028.1,028.4,0000.0,0010.99,0030.76,0008.69
2024-04-25 14:07:00,SystemResetWarning,0824.3,5.00,000.00,026.3,025.5,000.0,034.7,028.1,027.5,0000.6,0010.97,0029.98,0008.69
2024-04-25 14:08:00,SystemResetWarning,0824.3,5.01,000.00,026.3,025.5,000.0,034.7,028.1,027.3,0000.6,0010.95,0029.62,0008.71
2024-04-25 14:09:00,SystemResetWarning,0824.3,4.99,000.00,026.3,025.5,000.0,034.7,028.1,027.1,0001.3,0010.96,0030.73,0008.73
2024-04-25 14:10:00,SystemResetWarning,0824.3,5.00,000.00,026.3,025.5,000.0,034.7,028.1,027.2,0001.5,0010.95,0029.97,0008.76
2024-04-25 14:11:00,SystemResetWarning,0824.3,5.00,000.00,026.3,025.5,000.0,034.7,028.1,027.4,0001.6,0011.06,0031.25,0008.80
2024-04-25 14:12:00,SystemResetWarning,0824.2,5.00,000.00,026.3,025.5,000.0,034.8,028.1,027.5,0001.5,0011.12,0029.35,0008.81
2024-04-25 14:13:00,SystemResetWarning,0824.2,4.99,000.00,026.3,025.5,000.0,034.8,028.1,027.4,0001.9,0011.19,0028.79,0008.81
2024-04-25 14:14:00,SystemResetWarning,0824.2,5.00,000.00,026.3,025.6,000.0,034.8,028.1,027.6,0002.0,0011.27,0029.88,0008.81
2024-04-25 14:15:00,SystemResetWarning,0824.2,5.00,000.00,026.3,025.6,000.0,034.8,028.1,027.6,0002.4,0011.24,0029.97,0008.82
2024-04-25 14:16:00,SystemResetWarning,0824.1,5.01,000.00,026.3,025.6,000.0,034.8,028.2,027.7,0002.8,0011.20,0031.91,0008.82
2024-04-25 14:17:00,SystemResetWarning,0824.2,5.00,000.00,026.3,025.6,000.0,034.8,028.2,027.6,0002.7,0011.26,0031.91,0008.84
2024-04-25 14:18:00,SystemResetWarning,0824.2,5.00,000.00,026.3,025.6,000.0,034.8,028.2,027.5,0002.4,0011.27,0032.28,0008.84
2024-04-25 14:19:00,SystemResetWarning,0824.1,4.99,000.00,026.3,025.6,000.0,034.8,028.2,027.5,0002.8,0011.18,0031.96,0008.82
2024-04-25 14:20:00,SystemResetWarning,0824.0,5.00,000.00,026.4,025.6,000.0,034.8,028.2,028.0,0002.5,0011.19,0030.44,0008.82
2024-04-25 14:21:00,SystemResetWarning,0824.0,5.01,000.00,026.4,025.6,000.0,034.8,028.2,027.7,0002.1,0011.19,0031.03,0008.81
2024-04-25 14:22:00,SystemResetWarning,0824.0,5.01,000.00,026.4,025.6,000.0,034.8,028.2,027.6,0002.0,0011.12,0030.54,0008.77
2024-04-25 14:23:00,SystemResetWarning,0824.0,5.00,000.00,026.4,025.7,000.0,034.8,028.2,027.2,0002.0,0011.13,0030.67,0008.74
2024-04-25 14:24:00,SystemResetWarning,0824.0,4.99,000.00,026.4,025.7,000.0,034.8,028.2,027.2,0001.9,0011.10,0030.30,0008.73
2024-04-25 14:25:00,SystemResetWarning,0824.0,5.00,000.00,026.4,025.7,000.0,034.8,028.2,027.4,0001.8,0010.99,0029.58,0008.71
2024-04-25 14:26:00,SystemResetWarning,0824.0,5.01,000.00,026.4,025.7,000.0,034.8,028.2,027.5,0001.6,0010.97,0029.02,0008.70
2024-04-25 14:27:00,SystemResetWarning,0824.0,5.01,000.00,026.4,025.7,000.0,034.9,028.2,027.4,0001.4,0010.95,0027.29,0008.69
2024-04-25 14:28:00,SystemResetWarning,0824.0,4.98,000.00,026.4,025.7,000.0,034.9,028.3,027.5,0001.7,0010.95,0026.99,0008.67
2024-04-25 14:29:00,SystemResetWarning,0824.0,5.00,000.00,026.4,025.7,000.0,034.9,028.3,027.9,0002.1,0010.97,0026.12,0008.68
2024-04-25 14:30:00,SystemResetWarning,0823.9,5.01,000.00,026.4,025.7,000.0,034.9,028.3,027.6,0001.8,0011.00,0026.09,0008.68
2024-04-25 14:31:00,SystemResetWarning,0824.0,5.01,000.00,026.4,025.8,000.0,034.9,028.3,027.8,0001.9,0011.04,0025.83,0008.66
2024-04-25 14:32:00,SystemResetWarning,0824.0,5.01,000.00,026.4,025.8,000.0,034.9,028.3,028.1,0002.1,0010.96,0024.25,0008.64
2024-04-25 14:33:00,SystemResetWarning,0824.0,4.98,000.00,026.4,025.8,000.0,034.9,028.3,027.8,0001.8,0010.94,0024.68,0008.65
2024-04-25 14:34:00,SystemResetWarning,0824.0,5.00,000.00,026.5,025.8,000.0,034.9,028.3,027.6,0002.0,0010.88,0024.56,0008.64
2024-04-25 14:35:00,SystemResetWarning,0823.9,5.00,000.00,026.5,025.8,000.0,034.9,028.3,027.3,0002.0,0010.85,0025.09,0008.64
2024-04-25 14:36:00,SystemResetWarning,0824.0,5.01,000.00,026.5,025.8,000.0,034.9,028.3,027.3,0001.7,0010.90,0025.58,0008.65
2024-04-25 14:37:00,SystemResetWarning,0824.0,5.01,000.00,026.5,025.8,000.0,034.9,028.3,027.4,0002.0,0010.91,0025.79,0008.67
2024-04-25 14:38:00,SystemResetWarning,0824.0,5.01,000.00,026.5,025.8,000.0,034.9,028.3,027.3,0002.3,0011.04,0025.88,0008.71
2024-04-25 14:39:00,SystemResetWarning,0823.9,4.98,000.00,026.5,025.7,000.0,034.9,028.3,027.5,0002.1,0011.06,0025.42,0008.73
2024-04-25 14:40:00,SystemResetWarning,0823.9,5.00,000.00,026.5,025.7,000.0,034.9,028.3,027.4,0001.9,0011.06,0025.13,0008.73
2024-04-25 14:41:00,SystemResetWarning,0823.9,5.01,000.00,026.5,025.7,000.0,034.9,028.3,027.4,0002.1,0011.06,0025.31,0008.74
2024-04-25 14:42:00,SystemResetWarning,0823.9,5.01,000.00,026.5,025.7,000.0,034.9,028.3,027.4,0001.9,0011.01,0024.97,0008.74
2024-04-25 14:43:00,SystemResetWarning,0823.9,4.99,000.00,026.5,025.7,000.0,035.0,028.3,027.5,0001.7,0011.01,0024.89,0008.77
2024-04-25 14:44:00,SystemResetWarning,0823.8,4.98,000.00,026.5,025.8,000.0,035.0,028.3,027.7,0002.0,0010.99,0024.35,0008.76
2024-04-25 14:45:00,SystemResetWarning,0823.8,5.02,000.00,026.5,025.8,000.0,035.0,028.4,027.6,0002.1,0010.95,0024.22,0008.77
2024-04-25 14:46:00,SystemResetWarning,0823.8,4.99,000.00,026.5,025.8,000.0,035.0,028.4,027.6,0002.0,0010.93,0024.34,0008.78
2024-04-25 14:47:00,SystemResetWarning,0823.8,4.99,000.00,026.5,025.8,000.0,035.0,028.4,027.4,0002.4,0010.91,0024.67,0008.79
2024-04-25 14:48:00,SystemResetWarning,0823.8,5.02,000.00,026.5,025.8,000.0,035.0,028.4,027.4,0001.9,0010.96,0025.16,0008.79
2024-04-25 14:49:00,SystemResetWarning,0823.8,4.99,000.00,026.5,025.8,000.0,035.0,028.4,027.5,0001.8,0010.92,0025.49,0008.77
2024-04-25 14:50:00,SystemResetWarning,0823.8,4.99,000.00,026.6,025.8,000.0,035.0,028.4,027.5,0001.7,0010.99,0026.44,0008.79
2024-04-25 14:51:00,SystemResetWarning,0823.7,5.01,000.00,026.6,025.8,000.0,035.0,028.4,027.9,0002.0,0011.03,0027.29,0008.79
2024-04-25 14:52:00,SystemResetWarning,0823.7,5.00,000.00,026.6,025.8,000.0,035.0,028.4,027.6,0002.0,0011.01,0028.55,0008.78
2024-04-25 14:53:00,SystemResetWarning,0823.7,5.00,000.00,026.6,025.9,000.0,035.0,028.4,027.9,0002.1,0011.08,0030.20,0008.79
2024-04-25 14:54:00,SystemResetWarning,0823.6,4.99,000.00,026.6,025.9,000.0,035.0,028.4,027.7,0002.3,0011.11,0031.61,0008.78
2024-04-25 14:55:00,SystemResetWarning,0823.6,4.99,000.00,026.6,025.9,000.0,035.0,028.4,027.8,0002.0,0011.13,0031.80,0008.79
2024-04-25 14:56:00,SystemResetWarning,0823.6,5.00,000.00,026.6,025.9,000.0,035.0,028.4,027.9,0001.9,0011.19,0031.50,0008.78
2024-04-25 14:57:00,SystemResetWarning,0823.6,5.00,000.00,026.6,025.9,000.0,035.1,028.4,027.8,0001.6,0011.24,0031.45,0008.79
2024-04-25 14:58:00,SystemResetWarning,0823.6,5.00,000.00,026.6,025.9,000.0,035.1,028.4,027.5,0001.3,0011.26,0030.52,0008.78
2024-04-25 14:59:00,SystemResetWarning,0823.6,5.00,000.00,026.6,025.9,000.0,035.1,028.4,027.3,0001.4,0011.22,0030.12,0008.77
